Time,TemperatureF,DewpointF,PressureIn,WindDirection,WindDirectionDegrees,WindSpeedMPH,WindSpeedGustMPH,Humidity,HourlyPrecipIn,Conditions,Clouds,dailyrainin,SolarRadiationWatts/m^2,SoftwareType,DateUTC
2013-07-04 00:00:00,60.0,54.0,-100.00,SSE,157,0.0,-999.0,82,-99.99,,,-99.99,0.000000,,2013-07-04 04:00:00,
2013-07-04 00:52:00,60.0,54.0,-100.00,SSE,157,0.0,-999.0,82,-99.99,,,-99.99,0.000000,,2013-07-04 04:52:00,
2013-07-04 01:00:00,63.0,55.0,-100.00,SE,135,2.0,-999.0,76,-99.99,,,-99.99,0.000000,,2013-07-04 05:00:00,
2013-07-04 01:43:00,63.0,55.0,-100.00,SE,135,2.0,-999.0,76,-99.99,,,-99.99,0.000000,,2013-07-04 05:43:00,
2013-07-04 01:52:00,63.0,55.0,-100.00,SE,135,2.0,-999.0,76,-99.99,,,-99.99,0.000000,,2013-07-04 05:52:00,
2013-07-04 02:00:00,67.0,56.0,-100.00,SSE,157,2.0,-999.0,68,-99.99,,,-99.99,0.000000,,2013-07-04 06:00:00,
2013-07-04 02:43:00,67.0,56.0,-100.00,SSE,157,2.0,-999.0,68,-99.99,,,-99.99,0.000000,,2013-07-04 06:43:00,
2013-07-04 02:53:00,67.0,56.0,-100.00,SSE,157,2.0,-999.0,68,-99.99,,,-99.99,0.000000,,2013-07-04 06:53:00,
2013-07-04 03:00:00,65.0,57.0,-100.00,South,180,1.0,-999.0,76,-99.99,,,-99.99,0.000000,,2013-07-04 07:00:00,
2013-07-04 03:43:00,65.0,57.0,-100.00,South,180,1.0,-999.0,76,-99.99,,,-99.99,0.000000,,2013-07-04 07:43:00,
2013-07-04 03:52:00,65.0,57.0,-100.00,South,180,1.0,-999.0,76,-99.99,,,-99.99,0.000000,,2013-07-04 07:52:00,
2013-07-04 04:00:00,66.0,60.0,-100.00,SSW,202,5.0,-999.0,80,-99.99,,,-99.99,0.000000,,2013-07-04 08:00:00,
2013-07-04 04:43:00,66.0,60.0,-100.00,SSW,202,5.0,-999.0,80,-99.99,,,-99.99,0.000000,,2013-07-04 08:43:00,
2013-07-04 04:53:00,66.0,60.0,-100.00,SSW,202,5.0,-999.0,80,-99.99,,,-99.99,0.000000,,2013-07-04 08:53:00,
2013-07-04 06:00:00,60.0,59.0,-100.00,WSW,247,4.0,-999.0,98,-99.99,,,-99.99,0.000000,,2013-07-04 10:00:00,
2013-07-04 06:43:00,60.0,59.0,-100.00,WSW,247,4.0,-999.0,98,-99.99,,,-99.99,0.000000,,2013-07-04 10:43:00,
2013-07-04 06:53:00,60.0,59.0,-100.00,WSW,247,4.0,-999.0,98,-99.99,,,-99.99,0.000000,,2013-07-04 10:53:00,
2013-07-04 07:00:00,60.0,59.0,-100.00,WSW,247,6.0,-999.0,98,-99.99,,,-99.99,5.800000,,2013-07-04 11:00:00,
2013-07-04 07:43:00,60.0,59.0,-100.00,WSW,247,6.0,-999.0,98,-99.99,,,-99.99,5.800000,,2013-07-04 11:43:00,
2013-07-04 07:53:00,60.0,59.0,-100.00,WSW,247,6.0,-999.0,98,-99.99,,,-99.99,5.800000,,2013-07-04 11:53:00,
2013-07-04 08:00:00,60.0,60.0,-100.00,SW,225,6.0,-999.0,98,-99.99,,,-99.99,42.919998,,2013-07-04 12:00:00,
2013-07-04 08:43:00,60.0,60.0,-100.00,SW,225,6.0,-999.0,98,-99.99,,,-99.99,42.919998,,2013-07-04 12:43:00,
2013-07-04 08:52:00,60.0,60.0,-100.00,SW,225,6.0,-999.0,98,-99.99,,,-99.99,42.919998,,2013-07-04 12:52:00,
2013-07-04 09:00:00,62.0,60.0,-100.00,SW,225,6.0,-999.0,93,-99.99,,,-99.99,131.080002,,2013-07-04 13:00:00,
2013-07-04 09:43:00,62.0,60.0,-100.00,SW,225,6.0,-999.0,93,-99.99,,,-99.99,131.080002,,2013-07-04 13:43:00,
2013-07-04 09:53:00,62.0,60.0,-100.00,SW,225,6.0,-999.0,93,-99.99,,,-99.99,131.080002,,2013-07-04 13:53:00,
2013-07-04 10:00:00,63.0,60.0,-100.00,SW,225,5.0,-999.0,90,-99.99,,,-99.99,145.000000,,2013-07-04 14:00:00,
2013-07-04 10:43:00,63.0,60.0,-100.00,SW,225,5.0,-999.0,90,-99.99,,,-99.99,145.000000,,2013-07-04 14:43:00,
2013-07-04 10:53:00,63.0,60.0,-100.00,SW,225,5.0,-999.0,90,-99.99,,,-99.99,145.000000,,2013-07-04 14:53:00,
2013-07-04 11:00:00,64.0,61.0,-100.00,WSW,247,5.0,-999.0,89,-99.99,,,-99.99,328.279999,,2013-07-04 15:00:00,
2013-07-04 11:43:00,64.0,61.0,-100.00,WSW,247,5.0,-999.0,89,-99.99,,,-99.99,328.279999,,2013-07-04 15:43:00,
2013-07-04 11:53:00,64.0,61.0,-100.00,WSW,247,5.0,-999.0,89,-99.99,,,-99.99,328.279999,,2013-07-04 15:53:00,
2013-07-04 12:00:00,66.0,62.0,-100.00,WSW,247,6.0,-999.0,84,-99.99,,,-99.99,779.520020,,2013-07-04 16:00:00,
2013-07-04 12:43:00,66.0,62.0,-100.00,WSW,247,6.0,-999.0,84,-99.99,,,-99.99,779.520020,,2013-07-04 16:43:00,
2013-07-04 12:52:00,66.0,62.0,-100.00,WSW,247,6.0,-999.0,84,-99.99,,,-99.99,779.520020,,2013-07-04 16:52:00,
2013-07-04 13:00:00,70.0,62.0,-100.00,West,270,5.0,-999.0,77,-99.99,,,-99.99,865.359985,,2013-07-04 17:00:00,
2013-07-04 13:43:00,70.0,62.0,-100.00,West,270,5.0,-999.0,77,-99.99,,,-99.99,865.359985,,2013-07-04 17:43:00,
2013-07-04 13:53:00,70.0,62.0,-100.00,West,270,5.0,-999.0,77,-99.99,,,-99.99,865.359985,,2013-07-04 17:53:00,
2013-07-04 14:00:00,72.0,63.0,-100.00,WSW,247,4.0,-999.0,71,-99.99,,,-99.99,894.359985,,2013-07-04 18:00:00,
2013-07-04 14:43:00,72.0,63.0,-100.00,WSW,247,4.0,-999.0,71,-99.99,,,-99.99,894.359985,,2013-07-04 18:43:00,
2013-07-04 14:52:00,72.0,63.0,-100.00,WSW,247,4.0,-999.0,71,-99.99,,,-99.99,894.359985,,2013-07-04 18:52:00,
2013-07-04 15:00:00,73.0,63.0,-100.00,West,270,4.0,-999.0,70,-99.99,,,-99.99,789.960022,,2013-07-04 19:00:00,
2013-07-04 15:43:00,73.0,63.0,-100.00,West,270,4.0,-999.0,70,-99.99,,,-99.99,789.960022,,2013-07-04 19:43:00,
2013-07-04 15:53:00,73.0,63.0,-100.00,West,270,4.0,-999.0,70,-99.99,,,-99.99,789.960022,,2013-07-04 19:53:00,
2013-07-04 16:00:00,70.0,62.0,-100.00,West,270,5.0,-999.0,76,-99.99,,,-99.99,793.440002,,2013-07-04 20:00:00,
2013-07-04 16:42:00,70.0,62.0,-100.00,West,270,5.0,-999.0,76,-99.99,,,-99.99,793.440002,,2013-07-04 20:42:00,
2013-07-04 16:53:00,70.0,62.0,-100.00,West,270,5.0,-999.0,76,-99.99,,,-99.99,793.440002,,2013-07-04 20:53:00,
2013-07-04 17:00:00,70.0,61.0,-100.00,WSW,247,6.0,-999.0,73,-99.99,,,-99.99,718.039978,,2013-07-04 21:00:00,
2013-07-04 17:43:00,70.0,61.0,-100.00,WSW,247,6.0,-999.0,73,-99.99,,,-99.99,718.039978,,2013-07-04 21:43:00,
2013-07-04 17:53:00,70.0,61.0,-100.00,WSW,247,6.0,-999.0,73,-99.99,,,-99.99,718.039978,,2013-07-04 21:53:00,
2013-07-04 18:00:00,69.0,60.0,-100.00,WSW,247,7.0,-999.0,72,-99.99,,,-99.99,584.640015,,2013-07-04 22:00:00,
2013-07-04 18:43:00,69.0,60.0,-100.00,WSW,247,7.0,-999.0,72,-99.99,,,-99.99,584.640015,,2013-07-04 22:43:00,
2013-07-04 18:52:00,69.0,60.0,-100.00,WSW,247,7.0,-999.0,72,-99.99,,,-99.99,584.640015,,2013-07-04 22:52:00,
2013-07-04 19:00:00,69.0,59.0,-100.00,WSW,247,7.0,-999.0,70,-99.99,,,-99.99,395.559998,,2013-07-04 23:00:00,
2013-07-04 19:33:00,69.0,59.0,-100.00,WSW,247,7.0,-999.0,70,-99.99,,,-99.99,395.559998,,2013-07-04 23:33:00,
2013-07-04 19:43:00,69.0,59.0,-100.00,WSW,247,7.0,-999.0,70,-99.99,,,-99.99,395.559998,,2013-07-04 23:43:00,
2013-07-04 19:52:00,69.0,59.0,-100.00,WSW,247,7.0,-999.0,70,-99.99,,,-99.99,395.559998,,2013-07-04 23:52:00,
2013-07-04 21:00:00,69.0,57.0,-100.00,SW,225,4.0,-999.0,65,-99.99,,,-99.99,62.639999,,2013-07-05 01:00:00,
2013-07-04 21:32:00,69.0,57.0,-100.00,SW,225,4.0,-999.0,65,-99.99,,,-99.99,62.639999,,2013-07-05 01:32:00,
2013-07-04 21:42:00,69.0,57.0,-100.00,SW,225,4.0,-999.0,65,-99.99,,,-99.99,62.639999,,2013-07-05 01:42:00,
2013-07-04 21:52:00,69.0,57.0,-100.00,SW,225,4.0,-999.0,65,-99.99,,,-99.99,62.639999,,2013-07-05 01:52:00,
2013-07-04 22:00:00,68.0,57.0,-100.00,SSW,202,2.0,-999.0,67,-99.99,,,-99.99,10.440000,,2013-07-05 02:00:00,
2013-07-04 22:43:00,68.0,57.0,-100.00,SSW,202,2.0,-999.0,67,-99.99,,,-99.99,10.440000,,2013-07-05 02:43:00,
2013-07-04 22:53:00,68.0,57.0,-100.00,SSW,202,2.0,-999.0,67,-99.99,,,-99.99,10.440000,,2013-07-05 02:53:00,
2013-07-04 23:00:00,67.0,55.0,-100.00,SSW,202,4.0,-999.0,65,-99.99,,,-99.99,0.000000,,2013-07-05 03:00:00,
2013-07-04 23:33:00,67.0,55.0,-100.00,SSW,202,4.0,-999.0,65,-99.99,,,-99.99,0.000000,,2013-07-05 03:33:00,
2013-07-04 23:42:00,67.0,55.0,-100.00,SSW,202,4.0,-999.0,65,-99.99,,,-99.99,0.000000,,2013-07-05 03:42:00,
2013-07-04 23:52:00,67.0,55.0,-100.00,SSW,202,4.0,-999.0,65,-99.99,,,-99.99,0.000000,,2013-07-05 03:52:00,